weather.gov     
National Weather Service

Regional Weather Roundup
NWS Homepage
This page is being discontinued on March 12, 2014.
The same data is available at this site. Please update your bookmarks.
Thank you, and we apologize for the inconvenience.
Please send an email to SR-SRH.Webmaster@noaa.gov with any concerns.


Current Version
Previous Version:    01  02  03  04  05  06  07  08  09  10  11  12  13  14  15  16  17  18  19  20  21  22  23  24  25  26  27  28  
[Printable]
907
ASUS44 KLZK 160905
RWRLZK

WEATHER ROUNDUP FOR ARKANSAS
NATIONAL WEATHER SERVICE LITTLE ROCK AR
400 AM CDT TUE SEP 16 2014

NOTE: "FAIR" INDICATES FEW OR NO CLOUDS BELOW 12,000 FEET WITH NO
SIGNIFICANT WEATHER AND/OR OBSTRUCTIONS TO VISIBILITY.

ARZ001-003-010-029-161000-
NORTHWEST ARKANSAS

CITY           SKY/WX    TMP DP  RH WIND       PRES   REMARKS
FAYETTEVILLE   CLOUDY    66  66 100 CALM      30.16F
FORT SMITH     CLEAR     68  66  93 CALM      30.13S FOG
HARRISON       CLOUDY    69  67  93 N3        30.17S
BENTONVILLE    CLOUDY    70  66  88 N5        30.17S
ROGERS         CLOUDY    69  66  90 NW3       30.18S
SILOAM SPGS    CLOUDY    70  64  83 CALM      30.17S
HIGHFILL       CLOUDY    69  68  96 N5        30.16S FOG
$$

ARZ004-005-016-161000-
NORTH CENTRAL ARKANSAS

CITY           SKY/WX    TMP DP  RH WIND       PRES   REMARKS
BATESVILLE     CLEAR     66  64  94 CALM      30.13R
FLIPPIN        CLOUDY    66  63  88 N5        30.15S
MTN HOME       CLOUDY    68  67  96 CALM      30.15R
$$

ARZ040-041-161000-
WEST CENTRAL ARKANSAS

CITY           SKY/WX    TMP DP  RH WIND       PRES   REMARKS
MENA             N/A     70  70 100 CALM        N/A
MOUNT IDA      CLOUDY    69  68  96 CALM      30.12S FOG
$$

ARZ009-017-025-026-028-161000-
NORTHEAST ARKANSAS

CITY           SKY/WX    TMP DP  RH WIND       PRES   REMARKS
CORNING          N/A     68  68 100 NE7       30.13R
JONESBORO      CLEAR     66  65  96 CALM      30.11R
NEWPORT        CLEAR     66  65  97 VRB3      30.13S
WALNUT RIDGE   CLOUDY    59  59 100 NE3       30.11S
BLYTHEVILLE    CLEAR     63  63 100 N5        30.11S
$$

ARZ022-023-033-042-044-161000-
CENTRAL ARKANSAS

CITY           SKY/WX    TMP DP  RH WIND       PRES   REMARKS
LITTLE ROCK    CLOUDY    72  66  81 N5        30.12F
N LITTLE ROCK    N/A     71  68  92 NW5       30.12F
JACKSONVILLE   MOCLDY    69  68  96 W1        30.11F
SEARCY         PTCLDY    67  67 100 CALM      30.12S
HOT SPRINGS    CLOUDY    70  68  93 CALM      30.12F
RUSSELLVILLE   PTCLDY    68  66  93 CALM      30.13S FOG
CLINTON        CLOUDY    64  64 100 CALM      30.14S FOG
$$

ARZ036-161000-
EAST ARKANSAS

CITY           SKY/WX    TMP DP  RH WIND       PRES   REMARKS
WEST MEMPHIS   MOCLDY    66  66 100 CALM      30.09F
$$

ARZ050-053-066-070-073-161000-
SOUTHWEST ARKANSAS

CITY           SKY/WX    TMP DP  RH WIND       PRES   REMARKS
ARKADELPHIA    FAIR      69  69 100 CALM      30.12S FOG
CAMDEN         CLOUDY    68  66  94 CALM      30.11S FOG
TEXARKANA      CLOUDY    70  70 100 CALM      30.13R FOG
EL DORADO      CLOUDY    70  68  93 CALM      30.12S
DE QUEEN       CLOUDY    69  68  96 CALM      30.11S FOG
$$

ARZ056-057-069-161000-
SOUTHEAST ARKANSAS

CITY           SKY/WX    TMP DP  RH WIND       PRES   REMARKS
PINE BLUFF     CLOUDY    70  68  93 N3        30.12R
STUTTGART      CLOUDY    70  64  83 NW6       30.13S
MONTICELLO     CLOUDY    70  67  90 CALM      30.11S

$$






U.S. Dept. of Commerce
NOAA National Weather Service
1325 East West Highway
Silver Spring, MD 20910
E-mail: w-nws.webmaster@noaa.gov
Page last modified: May 16, 2007
NATIONAL WEATHER SERVICE: for Safety, for Work, for Fun - FOR LIFE